Location: Nasgenstadt
(48.2786°N, 9.7553°E)
Time: 16:28:28
(UTC+02:00)

ISS - Pass Details

Date: 17 May 2021
Orbit: 419 x 422 km, 51.6° (Epoch: 25 June)

Event Time Altitude Azimuth Distance (km) Brightness Sun altitude
Rises 23:31:16 0° 266° (W) 2,369 0.4 -18.2°
Reaches altitude 10° 23:33:24 10° 271° (W) 1,506 -0.6 -18.3°
Maximum altitude 23:36:43 52° 349° (N) 533 -2.9 -18.5°
Drops below altitude 10° 23:40:02 10° 68° (ENE) 1,510 -1.0 -18.8°
Enters shadow 23:41:57 - 73° (ENE) 2,282 -0.1 -18.9°
